Weather History for Spirit of St Louis, MO

Change the Weather History Date:

Friday, January 25, 2013

  Actual Average Record
Temperature  
Mean Temperature 35 °F -  
Max Temperature 44 °F 38 °F 43 °F (2014)
Min Temperature 26 °F 19 °F 21 °F (2014)
Degree Days  
Heating Degree Days 30    
Moisture  
Dew Point 15 °F    
Average Humidity 49    
Maximum Humidity 61    
Minimum Humidity 37    
Precipitation  
Precipitation 0.00 in - - ()
Sea Level Pressure  
Sea Level Pressure 30.19 in    
Wind  
Wind Speed 5 mph (WSW)    
Max Wind Speed 12 mph    
Max Gust Speed -    
Visibility 10 miles    
Events      
Averages and records for this station are not official NWS values.
T = Trace of Precipitation, MM = Missing Value Source: NWS Daily Summary

Daily Weather History Graph

Daily Weather History Graph

Search for Another Location

Airport:

Trip Planner

Search our weather history database for the weather conditions in past years. The results will help you decide how hot, cold, wet, or windy it might be!

Date:

Astronomy

Jan. 25, 2013 Rise Set
Actual Time 7:13 AM CST 5:16 PM CST
Civil Twilight 6:45 AM CST 5:45 PM CST
Nautical Twilight 6:13 AM CST 6:17 PM CST
Astronomical Twilight 5:41 AM CST 6:48 PM CST
Moon 4:14 PM CST (1/25) 5:53 AM CST (1/25)
Length of Visible Light 11h 00m
Length of Day
10h 03m
Waxing Gibbous, 98% of the Moon is Illuminated
Jan 25
Waxing Gibbous
Jan 26
Full
Feb 3
Last Quarter
Feb 10
New
Feb 17
First Quarter

Hourly Weather History & Observations

Time (CST) Temp. Windchill Dew Point Humidity Pressure Visibility Wind Dir Wind Speed Gust Speed Precip Events Conditions
12:54 AM 27.0 °F 19.5 °F 10.0 °F 49% 30.28 in 10.0 mi East 6.9 mph - N/A   Overcast
1:54 AM 27.0 °F 21.6 °F 10.0 °F 49% 30.22 in 10.0 mi ESE 4.6 mph - N/A   Overcast
2:22 AM 26.6 °F 20.0 °F 10.4 °F 51% 30.19 in 10.0 mi ESE 5.8 mph - N/A   Overcast
2:40 AM 28.4 °F - 10.4 °F 47% 30.19 in 10.0 mi Calm Calm - N/A   Overcast
2:54 AM 28.0 °F 22.8 °F 9.0 °F 45% 30.21 in 10.0 mi SSE 4.6 mph - N/A   Overcast
3:54 AM 28.0 °F - 10.0 °F 47% 30.20 in 10.0 mi Calm Calm - N/A   Overcast
4:54 AM 28.0 °F - 10.0 °F 47% 30.19 in 10.0 mi Calm Calm - N/A   Overcast
5:54 AM 28.0 °F 24.2 °F 10.9 °F 49% 30.16 in 10.0 mi SSE 3.5 mph - N/A   Overcast
6:13 AM 28.4 °F - 10.4 °F 47% 30.14 in 10.0 mi Calm Calm - N/A   Overcast
6:54 AM 26.1 °F - 10.9 °F 53% 30.18 in 10.0 mi Calm Calm - N/A   Overcast
7:20 AM 26.6 °F - 14.0 °F 59% 30.15 in 10.0 mi Calm Calm - N/A   Overcast
7:54 AM 28.0 °F - 12.9 °F 53% 30.19 in 10.0 mi Calm Calm - N/A   Overcast
8:54 AM 28.9 °F 25.2 °F 14.0 °F 54% 30.20 in 10.0 mi WSW 3.5 mph - N/A   Overcast
9:54 AM 32.0 °F 25.6 °F 17.1 °F 54% 30.21 in 10.0 mi West 6.9 mph - N/A   Overcast
10:52 AM 37.4 °F 30.3 °F 17.6 °F 45% 30.17 in 10.0 mi West 10.4 mph - N/A   Scattered Clouds
10:54 AM 36.0 °F 29.6 °F 18.0 °F 48% 30.19 in 10.0 mi West 8.1 mph - N/A   Scattered Clouds
11:54 AM 37.9 °F 30.9 °F 19.0 °F 47% 30.17 in 10.0 mi WSW 10.4 mph - N/A   Clear
12:54 PM 41.0 °F 35.8 °F 19.0 °F 41% 30.15 in 10.0 mi West 8.1 mph - N/A   Clear
1:54 PM 42.1 °F 37.1 °F 18.0 °F 38% 30.14 in 10.0 mi WSW 8.1 mph - N/A   Clear
2:54 PM 44.1 °F 38.1 °F 19.0 °F 37% 30.14 in 10.0 mi WSW 11.5 mph - N/A   Scattered Clouds
3:54 PM 43.0 °F 36.8 °F 18.0 °F 37% 30.14 in 10.0 mi WSW 11.5 mph - N/A   Clear
4:54 PM 39.0 °F 32.8 °F 18.0 °F 43% 30.15 in 10.0 mi WSW 9.2 mph - N/A   Mostly Cloudy
5:54 PM 35.1 °F 29.3 °F 18.0 °F 50% 30.18 in 10.0 mi WSW 6.9 mph - N/A   Mostly Cloudy
6:54 PM 33.1 °F 27.7 °F 18.0 °F 54% 30.19 in 10.0 mi WSW 5.8 mph - N/A   Clear
7:54 PM 30.9 °F 24.3 °F 18.0 °F 59% 30.20 in 10.0 mi West 6.9 mph - N/A   Clear
8:54 PM 33.1 °F 25.5 °F 19.0 °F 56% 30.20 in 10.0 mi WSW 9.2 mph - N/A   Clear
9:54 PM 34.0 °F 26.6 °F 19.0 °F 54% 30.22 in 10.0 mi West 9.2 mph - N/A   Clear
10:54 PM 33.1 °F 26.1 °F 19.0 °F 56% 30.25 in 10.0 mi WSW 8.1 mph - N/A   Clear
11:54 PM 30.9 °F 25.2 °F 19.0 °F 61% 30.26 in 10.0 mi West 5.8 mph - N/A   Clear